Date,TemperatureHighF,TemperatureAvgF,TemperatureLowF,DewpointHighF,DewpointAvgF,DewpointLowF,HumidityHigh,HumidityAvg,HumidityLow,PressureMaxIn,PressureMinIn,WindSpeedMaxMPH,WindSpeedAvgMPH,GustSpeedMaxMPH,PrecipitationSumIn
2013-10-1,73.0,55.1,41.5,56.7,48.7,40.2,97,81,50,30.03,29.88,1,0,7,0.00
2013-10-2,75.4,59.2,45.8,59.2,52.6,44.7,98,81,51,29.99,29.89,2,0,10,0.00
2013-10-3,75.4,57.3,44.3,52.6,45.2,35.1,97,70,24,30.11,29.99,2,0,10,0.00
2013-10-4,77.6,63.2,50.5,63.6,57.6,47.1,96,84,56,30.06,29.92,2,0,10,0.62
2013-10-5,76.5,65.4,60.2,65.1,61.1,59.3,98,87,59,30.03,29.95,1,0,7,0.36
2013-10-6,63.1,60.1,57.8,60.9,58.5,56.1,98,94,88,30.02,29.97,1,0,6,0.14
2013-10-7,69.3,60.6,49.2,64.9,56.5,43.0,97,87,71,29.97,29.58,3,1,13,0.79
2013-10-8,62.7,51.1,39.6,45.3,40.4,37.1,92,70,39,30.35,29.88,2,0,9,0.00
2013-10-9,63.9,46.6,34.3,45.1,37.6,33.0,97,75,35,30.43,30.31,1,0,6,0.00
2013-10-10,57.3,45.8,36.0,45.5,39.7,34.7,97,81,48,30.32,30.14,0,0,3,0.00
2013-10-11,72.7,54.5,43.1,52.4,44.4,37.8,87,71,41,30.16,30.00,1,0,7,0.00
2013-10-12,69.6,52.7,34.9,51.1,43.5,33.3,96,74,46,30.27,30.11,2,0,12,0.00
2013-10-13,67.3,53.9,43.9,48.9,45.9,41.7,95,76,47,30.35,30.25,2,0,9,0.00
2013-10-14,69.8,55.7,43.3,51.1,47.0,41.7,96,75,42,30.33,30.16,2,0,7,0.00
2013-10-15,67.9,58.6,51.3,53.7,51.5,48.2,92,78,56,30.22,30.05,1,0,5,0.00
2013-10-16,62.0,53.8,46.4,52.2,48.2,42.7,91,82,66,30.06,29.84,0,0,4,0.00
2013-10-17,70.9,61.0,54.5,57.9,49.8,39.1,92,70,33,29.85,29.55,2,0,10,0.15
2013-10-18,60.5,52.8,40.6,58.5,42.6,33.2,94,70,37,29.92,29.53,3,1,15,0.05
2013-10-19,60.5,46.9,35.0,46.1,38.0,33.7,96,75,37,29.96,29.66,2,0,10,0.01
2013-10-20,54.4,46.5,37.8,44.8,35.2,30.4,86,66,41,30.01,29.65,3,1,13,0.00
2013-10-21,63.2,47.8,33.7,41.3,35.5,31.6,95,67,33,30.11,29.87,2,0,11,0.00
2013-10-22,55.1,48.6,33.2,45.4,38.9,30.0,88,70,49,29.88,29.68,2,0,12,0.00
2013-10-23,47.1,37.6,29.8,36.2,31.2,27.1,93,80,46,29.80,29.59,1,0,7,0.03
2013-10-24,43.9,37.8,30.3,34.5,27.9,22.8,94,70,44,29.91,29.71,3,1,11,0.01
2013-10-25,44.3,38.0,32.5,34.1,30.1,26.6,90,74,52,30.16,29.90,3,0,13,0.00
2013-10-26,48.5,39.5,27.8,31.1,25.5,21.6,94,61,35,30.16,29.81,4,1,16,0.00
2013-10-27,47.1,41.0,32.1,33.8,29.2,25.4,85,64,43,30.07,29.77,3,1,16,0.00
2013-10-28,50.5,38.1,29.3,33.5,29.9,26.2,91,74,48,30.32,30.06,3,0,12,0.00
2013-10-29,46.8,36.3,28.7,29.5,24.4,17.7,90,65,31,30.41,30.31,2,0,11,0.00
2013-10-30,56.6,41.3,32.4,43.3,34.9,24.7,96,79,50,30.31,30.13,2,0,9,0.02
2013-10-31,58.3,45.7,32.4,56.1,44.4,31.0,98,95,86,30.21,29.65,2,0,18,0.47